[[{"header":{"parameterUnit":"m.s-1","parameterCategory":1,"la1":30.2991,"la2":30.254,"lo1":-89.0895,"lo2":-89.0444,"dy":0.0017,"dx":0.0017,"nx":28,"ny":28,"refTime":"2026-01-30T09:00:00:Z","depth":0,"parameterNumber":2,"parameterNumberName":"U-component_of_WINDS"},"data":[0,0,0,0,0,0,0,0,0,0,0,0,0,0,0,0,0,0,0,0,0,0,0,0,0,0,0,0,0,0,0,0,0,0,0,0,0,0,0,0,0,0,0,0,0,0,0,0,0,0,0,0,0,0,0,0,0,0,3.706,3.706,0,3.7111,3.7111,3.7112,3.7082,3.7081,3.7079,3.7078,3.7129,3.7131,3.7134,0,0,0,0,0,0,0,0,0,0,0,0,0,3.6936,3.6938,3.7059,3.706,3.7061,3.7111,3.7111,3.7112,3.7082,3.7081,3.7079,3.7077,3.7128,3.7131,3.7134,0,0,0,0,0,0,0,0,0,0,0,0,0,3.6988,3.6939,3.7059,3.7052,3.7052,3.7111,3.7111,3.7112,3.7083,3.7081,3.7079,3.7076,3.7127,3.7131,3.7135,3.7203,0,0,3.7147,3.7149,0,0,0,0,0,0,0,0,3.6985,3.6993,3.7052,3.7053,3.7053,3.7088,3.7086,3.7143,3.7083,3.7071,3.7078,3.7075,3.7117,3.7122,3.7136,3.7205,3.7208,3.7148,3.715,3.7152,3.7153,0,0,0,0,0,0,0,3.6982,3.6991,3.708,3.7053,3.7053,3.7046,3.7051,3.7097,3.7105,3.7072,3.707,3.7077,3.7116,3.7132,3.7137,3.7208,3.7147,3.7151,3.7153,3.7155,3.7337,3.734,0,0,0,0,0,0,3.6979,3.6988,3.7078,3.7081,3.7013,3.705,3.7056,3.7079,3.7105,3.7107,3.7078,3.7075,3.7126,3.7132,3.7139,3.722,3.7152,3.7155,3.7158,3.7335,3.7338,3.7341,0,0,0,0,0,0,3.6976,3.6987,3.7076,3.7034,3.7045,3.7055,3.7081,3.7081,3.7096,3.711,3.7111,3.7093,3.7125,3.7133,3.7188,3.7222,3.7157,3.7161,3.7332,3.7336,3.7339,3.7385,0,0,0,0,0,0,3.6973,3.6986,3.7012,3.7035,3.7047,3.7124,3.7083,3.7083,3.7104,3.71,3.7123,3.7125,3.7124,3.7182,3.7192,3.7226,3.7164,3.7329,3.7334,3.7338,3.738,3.7389,3.7397,0,0,0,0,0,3.6968,3.7022,3.7014,3.7025,3.708,3.7126,3.7133,3.7131,3.7107,3.7133,3.7142,3.7125,3.7217,3.7188,3.7198,3.7235,3.7327,3.7333,3.7338,3.7376,3.7388,3.7397,0,0,0,0,0,0,3.7003,3.7025,3.7016,3.7079,3.7101,3.7121,3.7154,3.7143,3.7172,3.7167,3.7162,3.7168,3.7225,3.7235,3.7202,3.7303,3.7268,3.7276,3.7294,3.7304,3.7313,3.7309,3.7167,0,0,0,0,0,3.7018,3.7054,3.7072,3.7125,3.7137,3.7144,3.7164,3.7161,3.7183,3.7192,3.7205,3.7227,3.7261,3.7283,3.7315,3.7382,3.7387,3.7413,3.7421,3.7428,3.7435,3.7471,3.7483,3.7359,3.7358,3.7358,0,0,3.7049,3.7065,3.7088,3.7133,3.7149,3.7187,3.7152,3.7193,3.7221,3.7198,3.7251,3.7261,3.7286,3.7347,3.7374,3.7357,3.747,3.7435,3.7441,3.7443,3.7478,3.749,3.75,3.7362,3.7362,3.7361,0,0,3.7124,3.7141,3.7188,3.7206,3.7232,3.7237,3.7248,3.7271,3.7277,3.733,3.7314,3.7347,3.7406,3.7424,3.7441,3.7527,3.7512,3.7537,3.7581,3.7617,3.7627,3.7636,3.7666,3.7677,3.7544,3.7544,3.7544,0,3.7159,3.7215,3.7213,3.7256,3.7276,3.7259,3.7306,3.7324,3.7359,3.7373,3.7354,3.7428,3.7444,3.7509,3.753,3.7545,3.7558,3.7534,3.7626,3.7635,3.7643,3.7671,3.7683,3.7547,3.7547,3.7546,3.7546,0,3.7257,3.7296,3.7331,3.7367,3.7391,3.7436,3.744,3.7465,3.746,3.7467,3.7522,3.754,3.7576,3.7591,3.7586,3.7657,3.7645,3.7626,3.7591,3.7657,3.7684,3.7695,3.7551,3.755,3.7549,3.7548,0,0,3.7353,3.7389,3.7401,3.7418,3.7447,3.7477,3.7522,3.7558,3.7579,3.7605,3.7642,3.7693,3.7676,3.7695,3.7693,3.7724,3.7791,3.7701,3.7702,3.7717,3.787,3.7883,3.7896,3.7782,3.7784,3.7786,3.7867,0,3.743,3.7508,3.7509,3.7581,3.7617,3.7603,3.7642,3.7664,3.7672,3.7704,3.7712,3.7749,3.7724,3.7736,3.7766,3.7776,3.7821,3.777,3.7816,3.7818,3.7809,3.791,3.7924,3.8,3.7878,3.788,3.7881,0,3.753,3.756,3.7636,3.7661,3.7676,3.7711,3.7744,3.7776,3.7801,3.7804,3.7827,3.782,3.7866,3.7831,3.7894,3.7859,3.7878,3.7886,3.7889,3.7892,3.7852,3.7915,3.8024,3.8035,3.7898,3.7896,3.7895,0,3.7592,3.7652,3.7705,3.7719,3.775,3.7775,3.7789,3.7812,3.7834,3.7863,3.7878,3.7912,3.793,3.7957,3.796,3.7934,3.8023,3.7988,3.8027,3.8027,3.8045,3.8044,3.8158,3.806,3.8059,3.8059,3.8059,0,3.7677,3.7724,3.7733,3.7766,3.7819,3.7819,3.7871,3.7882,3.7904,3.7938,3.7928,3.7961,3.7963,3.7997,3.7999,3.8051,3.8059,3.8064,3.8063,3.8064,3.8063,3.8075,3.807,3.8062,3.8062,3.8061,3.806,0,3.7755,3.7763,3.782,3.7845,3.7853,3.789,3.7911,3.7942,3.795,3.7995,3.8005,3.8017,3.8057,3.8062,3.8108,3.811,3.8172,3.8167,3.8164,3.8163,3.8201,3.8197,3.8326,3.8343,3.8234,3.8235,3.8236,0,3.7808,3.7844,3.7874,3.7897,3.7912,3.7949,3.7972,3.7974,3.7998,3.8031,3.8058,3.8097,3.8128,3.8192,3.8204,3.824,3.8235,3.8278,3.824,3.824,3.8235,3.8232,3.8236,3.8284,3.8286,3.8287,3.8287,0,3.7902,3.7905,3.7938,3.7974,3.8002,3.803,3.8056,3.8076,3.8082,3.8109,3.815,3.8174,3.8222,3.8261,3.8296,3.831,3.83,3.83,3.831,3.8311,3.8307,3.8309,3.8183,3.8296,3.8295,3.8295,3.8294,3.8294,3.7969,3.8001,3.8027,3.8065,3.8085,3.811,3.8141,3.8154,3.8188,3.8227,3.8227,3.8272,3.8297,3.8344,3.8361,3.8396,3.8382,3.8397,3.8401,3.8405,3.8408,3.8303,3.8402,3.8402,3.8402,3.8402,3.8401,0,3.8062,3.8078,3.8114,3.8151,3.8182,3.8171,3.82,3.8226,3.8265,3.829,3.8322,3.8369,3.8407,3.8423,3.8461,3.8485,3.8482,3.8495,3.8493,3.8496,3.8419,3.8406,3.8497,3.8497,3.8497,3.8497,3.8497,3.8497,3.8114,3.8167,3.8173,3.8236,3.8252,3.8296,3.8314,3.8337,3.8357,3.8411,3.8443,3.8454,3.8475,3.8515,3.8549,3.8553,3.8567,3.8582,3.8584,3.8511,3.8501,3.8492,3.8479,3.8585,3.8585,3.8658,3.8658,3.8659]},{"header":{"parameterUnit":"m.s-1","parameterCategory":1,"la1":30.2991,"la2":30.254,"lo1":-89.0895,"lo2":-89.0444,"dy":0.0017,"dx":0.0017,"nx":28,"ny":28,"refTime":"2026-01-30T09:00:00:Z","depth":0,"parameterNumber":3,"parameterNumberName":"V-component_of_WINDS"},"data":[0,0,0,0,0,0,0,0,0,0,0,0,0,0,0,0,0,0,0,0,0,0,0,0,0,0,0,0,0,0,0,0,0,0,0,0,0,0,0,0,0,0,0,0,0,0,0,0,0,0,0,0,0,0,0,0,0,0,-7.4273,-7.4275,0,-7.4432,-7.4434,-7.4436,-7.4383,-7.4379,-7.4376,-7.4373,-7.4531,-7.4538,-7.4546,0,0,0,0,0,0,0,0,0,0,0,0,0,-7.3919,-7.3926,-7.4273,-7.4275,-7.4277,-7.4432,-7.4434,-7.4437,-7.4383,-7.4379,-7.4375,-7.4371,-7.4529,-7.4537,-7.4546,0,0,0,0,0,0,0,0,0,0,0,0,0,-7.4075,-7.3928,-7.4273,-7.4269,-7.4271,-7.4432,-7.4434,-7.4437,-7.4384,-7.4379,-7.4374,-7.4369,-7.4526,-7.4536,-7.4547,-7.472,0,0,-7.4582,-7.4586,0,0,0,0,0,0,0,0,-7.4066,-7.4088,-7.4268,-7.427,-7.4272,-7.4383,-7.4367,-7.4532,-7.4386,-7.4341,-7.4373,-7.4367,-7.4485,-7.45,-7.4541,-7.4727,-7.4734,-7.4583,-7.4589,-7.4594,-7.4597,0,0,0,0,0,0,0,-7.4055,-7.4081,-7.4336,-7.427,-7.4273,-7.4259,-7.4275,-7.4398,-7.444,-7.4344,-7.4341,-7.4361,-7.4485,-7.453,-7.4544,-7.4736,-7.4582,-7.4592,-7.4599,-7.4603,-7.5073,-7.5079,0,0,0,0,0,0,-7.4044,-7.4072,-7.4331,-7.4341,-7.4154,-7.4269,-7.4288,-7.4352,-7.4439,-7.4447,-7.4365,-7.4358,-7.4514,-7.4531,-7.4549,-7.4758,-7.4594,-7.4604,-7.4611,-7.5068,-7.5075,-7.5081,0,0,0,0,0,0,-7.4037,-7.4068,-7.4324,-7.4206,-7.4237,-7.4281,-7.4354,-7.4358,-7.4403,-7.4454,-7.4461,-7.4403,-7.451,-7.4534,-7.4679,-7.4763,-7.4609,-7.462,-7.5061,-7.507,-7.5078,-7.5176,0,0,0,0,0,0,-7.4027,-7.4065,-7.4132,-7.4208,-7.4244,-7.4452,-7.4359,-7.4365,-7.4423,-7.4414,-7.4492,-7.45,-7.4508,-7.4662,-7.469,-7.4775,-7.4628,-7.5053,-7.5065,-7.5075,-7.5165,-7.5187,-7.5205,0,0,0,0,0,-7.4014,-7.4152,-7.4136,-7.4167,-7.4328,-7.4457,-7.4478,-7.4486,-7.443,-7.4497,-7.453,-7.4497,-7.4749,-7.4677,-7.4708,-7.4798,-7.5048,-7.5062,-7.5074,-7.5156,-7.5182,-7.5205,0,0,0,0,0,0,-7.4083,-7.4162,-7.4145,-7.4311,-7.4378,-7.4448,-7.4533,-7.4513,-7.4596,-7.4585,-7.459,-7.4608,-7.4757,-7.4792,-7.4711,-7.497,-7.489,-7.491,-7.4942,-7.4967,-7.4987,-7.4975,-7.4638,0,0,0,0,0,-7.4118,-7.4218,-7.428,-7.4421,-7.4456,-7.4489,-7.4545,-7.4546,-7.4615,-7.4642,-7.4686,-7.4753,-7.4847,-7.4909,-7.4998,-7.517,-7.5186,-7.5247,-7.5267,-7.5283,-7.53,-7.5394,-7.5422,-7.5124,-7.5124,-7.5123,0,0,-7.4191,-7.4246,-7.4308,-7.4436,-7.4488,-7.459,-7.4513,-7.4624,-7.4699,-7.4658,-7.4799,-7.4834,-7.4908,-7.5068,-7.514,-7.5101,-7.5386,-7.53,-7.5312,-7.532,-7.541,-7.5438,-7.5463,-7.5133,-7.5131,-7.513,0,0,-7.4375,-7.4427,-7.4551,-7.4605,-7.4686,-7.4707,-7.4737,-7.481,-7.4833,-7.4974,-7.4946,-7.5035,-7.5197,-7.5252,-7.5301,-7.5508,-7.5481,-7.5536,-7.5641,-7.5732,-7.5756,-7.5777,-7.5851,-7.5877,-7.5553,-7.5553,-7.5554,0,-7.4455,-7.4609,-7.4616,-7.4731,-7.4788,-7.4758,-7.4883,-7.4934,-7.5039,-7.5079,-7.5035,-7.5239,-7.5287,-7.5459,-7.551,-7.555,-7.5584,-7.5528,-7.5752,-7.5773,-7.5793,-7.5863,-7.5891,-7.556,-7.5559,-7.5558,-7.5558,0,-7.4703,-7.481,-7.49,-7.5005,-7.5072,-7.5191,-7.5216,-7.5283,-7.5278,-7.5303,-7.5448,-7.5505,-7.5606,-7.5646,-7.5642,-7.5819,-7.5792,-7.575,-7.567,-7.5827,-7.5894,-7.5921,-7.5569,-7.5567,-7.5565,-7.5563,0,0,-7.4935,-7.5043,-7.5076,-7.5124,-7.5211,-7.5294,-7.5411,-7.5512,-7.5569,-7.5643,-7.5741,-7.588,-7.5842,-7.5898,-7.5899,-7.5979,-7.6141,-7.5927,-7.5929,-7.5965,-7.6339,-7.6371,-7.6402,-7.6123,-7.6128,-7.6133,-7.6333,0,-7.5127,-7.5335,-7.5346,-7.5535,-7.5634,-7.5607,-7.571,-7.5774,-7.5801,-7.5888,-7.5917,-7.6016,-7.5959,-7.5992,-7.6071,-7.6104,-7.6216,-7.609,-7.6214,-7.6218,-7.6197,-7.6437,-7.647,-7.6657,-7.6359,-7.6364,-7.6367,0,-7.5379,-7.5463,-7.5662,-7.5737,-7.5779,-7.5871,-7.5964,-7.6048,-7.612,-7.6134,-7.6198,-7.6188,-7.6307,-7.6223,-7.6388,-7.6302,-7.6353,-7.6377,-7.6385,-7.6397,-7.6302,-7.6456,-7.6716,-7.6745,-7.6408,-7.6405,-7.6402,0,-7.5529,-7.5691,-7.5832,-7.5873,-7.5963,-7.6029,-7.6069,-7.6136,-7.6197,-7.6278,-7.6317,-7.641,-7.6462,-7.6534,-7.6549,-7.6486,-7.6713,-7.663,-7.6728,-7.6728,-7.6777,-7.6774,-7.705,-7.681,-7.6809,-7.6809,-7.6808,0,-7.5743,-7.5866,-7.5901,-7.5987,-7.6124,-7.6135,-7.627,-7.6305,-7.6366,-7.6458,-7.644,-7.6526,-7.6541,-7.6631,-7.6643,-7.6778,-7.68,-7.6815,-7.6816,-7.6817,-7.6815,-7.685,-7.6838,-7.6816,-7.6815,-7.6813,-7.6812,0,-7.5933,-7.5962,-7.6113,-7.6187,-7.6209,-7.6306,-7.6369,-7.6451,-7.6477,-7.6594,-7.6622,-7.6662,-7.6767,-7.6789,-7.6912,-7.6921,-7.7081,-7.7069,-7.7057,-7.7056,-7.7153,-7.7144,-7.7462,-7.7504,-7.7236,-7.7238,-7.724,0,-7.6068,-7.6163,-7.6247,-7.6309,-7.6353,-7.6451,-7.6514,-7.6528,-7.6593,-7.6683,-7.6755,-7.6858,-7.6941,-7.7109,-7.7148,-7.7243,-7.7234,-7.7339,-7.7248,-7.7246,-7.7236,-7.7231,-7.724,-7.7356,-7.7359,-7.7362,-7.7363,0,-7.6304,-7.6314,-7.6405,-7.6502,-7.6577,-7.6654,-7.6726,-7.6777,-7.6801,-7.6875,-7.6983,-7.7048,-7.7175,-7.7278,-7.7373,-7.7412,-7.7393,-7.7392,-7.742,-7.7421,-7.741,-7.7418,-7.7105,-7.7385,-7.7382,-7.7381,-7.738,-7.7379,-7.6472,-7.6555,-7.6628,-7.673,-7.6787,-7.6855,-7.6937,-7.6974,-7.7065,-7.7171,-7.7173,-7.7292,-7.7361,-7.7487,-7.7533,-7.7625,-7.7592,-7.7631,-7.7642,-7.7651,-7.7661,-7.7396,-7.7642,-7.7641,-7.7641,-7.764,-7.764,0,-7.6707,-7.6754,-7.6848,-7.6951,-7.7032,-7.7008,-7.7087,-7.7155,-7.726,-7.7328,-7.7411,-7.7535,-7.7635,-7.7683,-7.7781,-7.7845,-7.7839,-7.7871,-7.7866,-7.7876,-7.7684,-7.7651,-7.7875,-7.7874,-7.7874,-7.7874,-7.7874,-7.7874,-7.684,-7.698,-7.6998,-7.7166,-7.7211,-7.7328,-7.7375,-7.7438,-7.7493,-7.7633,-7.7717,-7.7748,-7.7808,-7.791,-7.8,-7.8012,-7.8049,-7.8086,-7.8093,-7.7913,-7.7889,-7.7866,-7.7835,-7.8094,-7.8094,-7.8276,-7.8278,-7.8279]}]]